Regional Weather Roundup
Issued by NWS

Home | Current Version | Previous Version | Text Only | Print | Product List | Glossary Off
Versions: 1 2 3 4 5 6 7 8 9 10 11 12 13 14 15 16 17 18 19 20 21 22 23 24 25 26 27 28 29 30 31 32 33 34 35 36 37 38 39 40 41 42 43 44 45 46 47 48 49 50

641
ASUS43 KLOT 250203
RWRIL

ILLINOIS REGIONAL WEATHER ROUNDUP
NATIONAL WEATHER SERVICE CHICAGO/ROMEOVILLE IL
800 PM CST FRI NOV 24 2017

NOTE: "FAIR" INDICATES FEW OR NO CLOUDS BELOW 12,000 FEET WITH NO
SIGNIFICANT WEATHER AND/OR OBSTRUCTIONS TO VISIBILITY.

* THESE STATIONS ARE NOT UNDER NWS QUALITY CONTROL. THEY ALSO MAY NOT
  REPORT WEATHER SUCH AS PRECIPITATION OR FOG.

ILZ001-002-007-009-015-016-024-250300-
NORTHWEST ILLINOIS

CITY           SKY/WX    TMP DP  RH WIND       PRES   REMARKS
MOLINE         CLEAR     58  41  53 W12       29.58R
STERLING*      PTCLDY    52  42  69 MISG        N/A
SAVANNA*       PTCLDY    54  41  62 W8        29.55R
$$

ILZ003-004-008-010-011-017-018-250300-
NORTH CENTRAL ILLINOIS

CITY           SKY/WX    TMP DP  RH WIND       PRES   REMARKS
ROCKFORD       CLOUDY    52  40  63 W6        29.53R
FREEPORT*      MOCLDY    53  41  63 W9        29.54R
ROCHELLE*      PTCLDY    47  40  77 W9        29.52R
DE KALB*       CLOUDY    53  40  61 W12       29.52R
PERU*          CLOUDY    55  39  54 W13       29.54R
$$

ILZ005-006-012>014-019>023-250300-
NORTHEAST ILLINOIS

CITY           SKY/WX    TMP DP  RH WIND       PRES   REMARKS
CHICAGO-OHARE  CLOUDY    55  40  56 SW18      29.49R
CHICAGO-MIDWAY NOT AVBL
AURORA         CLOUDY    54  41  61 SW14      29.51R
LANSING*       CLOUDY    51  39  64 SW18G25   29.53S
JOLIET*        CLOUDY    55  41  58 SW7G18    29.53R
WAUKEGAN       CLOUDY    55  41  59 SW10G20   29.46R
DUPAGE AIRPORT CLOUDY    54  42  64 SW13      29.50R
KANKAKEE*      CLOUDY    51  37  56 SW18      29.56S
WHEELING       CLOUDY    56  41  57 SW12      29.50R
MORRIS*        CLOUDY    54  40  57 SW18      29.52R
ROMEOVILLE*    CLOUDY   N/A N/A N/A SW12      29.52R
NORTHERLY ISL    N/A     54  36  50 S15         N/A
$$

LMZ740>746-250300-
SOUTHERN LAKE MICHIGAN

STATION/POSITION SKY/WX   TEMP    WIND        PRES    VSBY  WAVE
                          AIR SEA DIR/SP/G                  HT/PER
                          (F)     (DEG/KT/KT) (MB)    (MI)  (FT/S)
SOUTHERN BUOY              51 47  210/ 21/ 23  997.0          5/ 6
HARRISON CRIB              55     210/ 32/ 37   N/A
BURNHAM HARBOR             54     150/ 18/ 22   N/A
CALUMET HARBOR             53     190/ 14/ 25  998.5R
BURNS HARBOR               53     190/ 25/ 30 1000.0S
MICHIGAN CITY              53     170/ 24/ 29   N/A
$$

ILZ025>027-034>036-040-047-049-050-058-095>099-250300-
WEST-CENTRAL ILLINOIS

CITY           SKY/WX    TMP DP  RH WIND       PRES   REMARKS
QUINCY         PTCLDY    59  40  49 NW10      29.65R
GALESBURG*     CLOUDY    53  42  67 W7        29.61R
MACOMB*        CLOUDY    54  41  62 W7        29.64R
JACKSONVILLE*  CLOUDY    56  37  47 MISG      29.61R
PITTSFIELD*    CLOUDY    63  38  40 SW8       29.63S
$$

ILZ028>032-037-038-041>044-048-051>054-059>061-250300-
CENTRAL ILLINOIS

CITY           SKY/WX    TMP DP  RH WIND       PRES   REMARKS
PONTIAC        CLOUDY    55  39  56 SW18G24   29.55S
BLOOMINGTON    CLOUDY    52  38  58 SW17      29.58R
DECATUR        CLOUDY    54  37  52 S21G30    29.62S
PEORIA         CLOUDY    58  39  49 W9        29.59R
LACON*         PTCLDY    58  39  49 W7        29.56R
LINCOLN*       CLOUDY    55  40  58 S7        29.59S
SPRINGFIELD    PTCLDY    58  39  49 S14       29.61R
TAYLORVILLE    CLOUDY    53  38  55 S16       29.63S
$$

ILZ033-039-045-046-055>057-062-063-250300-
EAST-CENTRAL ILLINOIS

CITY           SKY/WX    TMP DP  RH WIND       PRES   REMARKS
CHAMPAIGN      MOCLDY    51  37  58 S18       29.61S
DANVILLE*      CLEAR     51  35  53 S22G28    29.59F
RANTOUL*       PTCLDY    52  39  62 S13       29.60F
MATTOON        PTCLDY    53  36  52 S17G24    29.65R
PARIS*         CLEAR     50  37  59 S17       29.67R
$$

ILZ079-100>102-250300-
SOUTHWEST ILLINOIS

CITY           SKY/WX    TMP DP  RH WIND       PRES   REMARKS
ALTON          PTCLDY    59  39  47 S12       29.66R
BELLEVILLE     CLOUDY    58  36  44 S12       29.67R
CAHOKIA*       CLOUDY    62  34  35 S9        29.66R
SPARTA*        MOCLDY    56  37  48 S15       29.72R
$$

ILZ064>066-069>071-074>076-080>082-084>086-088>090-092>094-250300-
SOUTH-CENTRAL ILLINOIS

CITY           SKY/WX    TMP DP  RH WIND       PRES   REMARKS
CARBONDALE     CLEAR     55  36  48 S14       29.74R
CAIRO*         MOCLDY    51  36  55 S7        29.80S
EFFINGHAM*     PTCLDY    54  37  53 S8        29.71R
MARION         PTCLDY    56  35  44 S22G28    29.74F
MT. VERNON     PTCLDY    55  37  50 SW17G25   29.72R
CENTRALIA*     PTCLDY    55  39  55 S18G25    29.70R
SALEM*         PTCLDY    56  37  48 S16G23    29.69R
METROPOLIS*    PTCLDY    54  34  46 S9        29.81S
$$

ILZ067-068-072-073-078-083-087-091-250300-
SOUTHEAST ILLINOIS

CITY           SKY/WX    TMP DP  RH WIND       PRES   REMARKS
LAWRENCEVILLE  CLEAR     51  35  54 S16       29.72R
FLORA*         CLEAR     54  37  52 S14       29.70R
FAIRFIELD*     PTCLDY    51  36  55 S3        29.71S
HARRISBURG*    PTCLDY    55  36  48 S12       29.75S
ROBINSON*      CLEAR     51  34  53 S15       29.70S
CARMI*         PTCLDY    53  35  49 S20       29.74R
$$

ABBREVIATIONS USED IN REMARKS
   TC - TEMPERATURE IN CELSIUS
  WCI - WIND CHILL INDEX
   HX - HEAT INDEX
  VSB - VISIBILITY
$$





USA.gov is the U.S. government's official web portal to all federal, state and local government web resources and services.